Location: Aetna Mine
(37.6183°N, 107.6045°W)
Time: 10:43:46
(UTC+00:00)

Cosmos 1802 Rocket - Pass Details

Date: 18 September 2020
Orbit: 954 x 1011 km, 82.9° (Epoch: 20 October)

Event Time Altitude Azimuth Distance (km) Brightness Sun altitude
Rises 12:20:23 0° 352° (N) 3,650 7.0 -7.7°
Reaches altitude 10° 12:22:53 10° 352° (N) 2,705 6.3 -7.2°
Maximum altitude 12:29:05 84° 265° (W) 981 4.0 -6.0°
Drops below altitude 10° 12:35:19 10° 178° (S) 2,725 6.3 -4.8°
Sets 12:37:50 0° 177° (S) 3,677 7.0 -4.3°
